CW9871 Weather Reports


time (UTC)temp
F
wind
direction
speed
knots
gust
knots
rain 1hr
in
rain 24hr
in
rain mn
in
humidity
%
barometer
mb
20260505034615 62 54 4.3 12.2 0.00 0.00 0.00 59 1002.6
20260505033059 57 71 6.1 18.2 0.00 0.00 0.00 66 1002.8
20260505031559 53 0 0.0 0.0 0.00 0.00 0.00 68 1002.7
20260505030057 53 74 0.0 0.9 0.00 0.00 0.00 67 1002.6
20260505024554 53 0 0.0 0.9 0.00 0.00 0.00 64 1002.6
20260505023055 55 0 0.0 1.7 0.00 0.00 0.00 63 1002.6
20260505021601 55 74 0.9 1.7 0.00 0.00 0.00 61 1002.8
20260505014556 56 0 0.0 0.0 0.00 0.00 0.00 59 1003.0
20260505013055 56 0 0.9 0.9 0.00 0.00 0.00 55 1002.8
20260505011611 58 74 0.0 0.9 0.00 0.00 0.00 50 1002.7
20260505010056 60 0 0.0 0.9 0.00 0.00 0.00 49 1002.6
20260505004605 61 0 0.0 2.6 0.00 0.00 0.00 48 1002.6
20260505003057 64 0 0.0 1.7 0.00 0.00 0.00 42 1002.5
20260505001617 67 0 0.0 0.9 0.00 0.00 0.00 37 1002.4
20260505000107 69 0 0.0 0.9 0.00 0.00 0.00 34 1002.5
20260504234558 72 0 0.0 0.9 0.00 0.00 0.00 33 1002.4
20260504233110 72 74 1.7 3.5 0.00 0.00 0.00 32 1002.4
20260504231555 73 74 1.7 6.1 0.00 0.00 0.00 32 1002.4
20260504230056 74 65 2.6 7.8 0.00 0.00 0.00 30 1002.3
20260504224553 75 24 4.3 8.7 0.00 0.00 0.00 29 1002.1
20260504223053 75 79 5.2 8.7 0.00 0.00 0.00 31 1002.2
20260504221555 74 46 5.2 10.4 0.00 0.00 0.00 30 1002.1
20260504220101 75 99 6.1 11.3 0.00 0.00 0.00 31 1002.3
20260504214600 75 53 7.0 13.9 0.00 0.00 0.00 30 1002.4
20260504213054 74 65 7.0 12.2 0.00 0.00 0.00 31 1002.4
20260504211552 74 72 8.7 18.2 0.00 0.00 0.00 31 1002.4
20260504210058 73 72 8.7 16.5 0.00 0.00 0.00 32 1002.6
20260504204557 74 76 8.7 14.8 0.00 0.00 0.00 31 1002.6
20260504203058 74 44 9.6 18.2 0.00 0.00 0.00 32 1002.8
20260504201553 73 66 5.2 14.8 0.00 0.00 0.00 35 1003.0
20260504200104 73 79 7.8 15.6 0.00 0.00 0.00 34 1003.2
20260504194604 74 104 6.1 14.8 0.00 0.00 0.00 35 1003.3
20260504193113 73 70 9.6 16.5 0.00 0.00 0.00 36 1003.6
20260504191613 73 67 6.1 16.5 0.00 0.00 0.00 38 1003.7
20260504190057 72 20 9.6 18.2 0.00 0.00 0.00 37 1003.8
20260504184557 72 84 8.7 16.5 0.00 0.00 0.00 38 1004.0
20260504183057 71 79 7.8 15.6 0.00 0.00 0.00 42 1004.2
20260504181601 71 105 7.0 12.2 0.00 0.00 0.00 39 1004.2
20260504180059 70 45 7.8 14.8 0.00 0.00 0.00 43 1004.5
20260504174558 70 70 9.6 16.5 0.00 0.00 0.00 42 1004.7
20260504173058 70 66 6.1 15.6 0.00 0.00 0.00 46 1004.8
20260504171558 69 64 8.7 13.0 0.00 0.00 0.00 45 1004.7
20260504090124 52 36 3.5 10.4 0.00 0.00 0.00 54 1006.7
20260504081556 51 79 5.2 9.6 0.00 0.00 0.00 54 1007.1
20260504060108 51 73 3.5 8.7 0.00 0.00 0.00 57 1007.8
20260504044619 53 52 5.2 10.4 0.00 0.00 0.00 53 1008.2
20260504043057 53 56 4.3 9.6 0.00 0.00 0.00 53 1008.1
20260504041556 54 58 4.3 8.7 0.00 0.00 0.00 53 1008.1
20260504040113 54 62 4.3 7.0 0.00 0.00 0.00 52 1008.1